Lapse_Rate
6.0 5.7 5.7 5.7 5.6 5.5 5.8 6.0 5.9 5.8 5.7 5.7 5.8 5.8 5.9 6.0 6.0 6.0 6.1 6.0 6.0 6.1 6.0 6.2 6.3 6.2 6.2 6.3 6.3 6.4 6.3 6.3 6.3
5.7 5.8 5.8 5.8 5.7 5.5 5.8 6.1 6.1 5.9 5.9 5.9 5.9 6.0 6.1 6.2 6.2 6.2 6.3 6.4 6.4 6.2 6.2 6.2 6.2 6.3 6.4 6.3 6.3 6.4 6.3 6.3 6.4
5.6 5.6 5.7 5.7 5.7 5.7 5.9 6.0 6.2 6.1 6.1 6.0 6.0 6.0 6.2 6.3 6.1 6.1 6.3 6.2 6.5 6.3 6.3 6.4 6.3 6.4 6.4 6.3 6.3 6.3 6.5 6.6 6.6
5.5 5.5 5.5 5.6 5.6 5.8 6.0 6.1 6.2 6.2 6.2 6.2 6.1 6.0 6.2 6.3 6.1 6.1 5.8 5.5 6.2 6.2 6.2 6.3 6.3 6.4 6.4 6.3 6.4 6.4 6.5 6.6 6.6
5.7 5.5 5.4 5.5 5.7 6.0 6.0 6.1 6.2 6.3 6.3 6.3 6.1 6.0 6.1 6.2 6.3 6.2 6.1 6.0 6.3 6.2 6.3 6.4 6.4 6.4 6.4 6.4 6.5 6.6 6.5 6.5 6.5
5.9 5.8 5.5 5.4 5.9 6.0 6.1 6.1 6.2 6.3 6.5 6.4 6.3 6.3 6.2 6.2 6.2 6.2 6.3 6.4 6.4 6.3 6.3 6.4 6.4 6.5 6.6 6.7 6.7 6.6 6.5 6.4 6.5
6.0 6.0 5.8 5.7 6.0 6.2 6.1 6.1 6.3 6.4 6.4 6.5 6.5 6.5 6.5 6.4 6.4 6.5 6.4 6.5 6.4 6.2 6.3 6.5 6.6 6.5 6.6 6.6 6.6 6.6 6.6 6.6 6.6
5.7 6.1 6.1 6.1 6.0 6.3 6.4 6.4 6.4 6.3 6.4 6.5 6.4 6.5 6.5 6.5 6.4 6.4 6.4 6.5 6.5 6.4 6.5 6.6 6.5 6.6 6.6 6.6 6.6 6.6 6.6 6.6 6.6
6.1 6.2 6.0 6.0 5.9 6.0 6.2 6.3 6.2 6.2 6.3 6.3 6.5 6.4 6.4 6.5 6.4 6.3 6.5 6.5 6.6 6.5 6.6 6.6 6.7 6.7 6.7 6.6 6.6 6.6 6.7 6.7 6.6
6.3 6.4 6.2 6.0 5.9 5.9 6.0 6.0 5.9 6.1 6.2 6.3 6.4 6.4 6.5 6.4 6.5 6.5 6.5 6.4 6.5 6.5 6.6 6.8 6.8 6.8 6.7 6.6 6.5 6.6 6.6 6.6 6.6
6.5 6.4 6.4 6.2 5.9 5.7 5.9 6.0 5.8 6.1 6.0 6.2 6.3 6.4 6.5 6.3 6.5 6.5 6.5 6.4 6.5 6.5 6.6 6.8 6.7 6.6 6.6 6.6 6.5 6.5 6.5 6.5 6.6
6.6 6.4 6.2 6.2 6.0 5.9 5.9 6.1 5.8 5.8 6.1 6.2 6.3 6.3 6.4 6.2 6.4 6.4 6.5 6.5 6.5 6.4 6.6 6.5 6.6 6.6 6.5 6.5 6.4 6.4 6.5 6.5 6.5
6.6 6.4 6.2 6.1 5.8 5.8 5.9 6.1 5.8 5.7 5.9 6.1 6.2 6.1 6.2 6.2 6.2 6.3 6.3 6.4 6.5 6.4 6.3 6.4 6.3 6.3 6.4 6.3 6.3 6.3 6.3 6.3 6.3
6.6 6.3 6.1 6.0 5.7 4.6 5.1 5.7 5.9 5.8 5.8 5.9 6.0 6.0 6.1 6.2 6.1 6.2 6.3 6.3 6.3 6.3 6.3 6.3 6.2 6.2 6.2 6.2 6.2 6.2 6.2 6.2 6.2
6.3 6.1 6.0 5.7 4.9 4.4 4.0 4.9 5.4 5.4 5.5 5.8 5.8 5.8 6.0 6.1 6.3 6.2 6.2 6.2 6.3 6.3 6.4 6.3 6.1 6.1 6.1 6.0 6.1 6.0 6.0 6.1 6.1
5.8 6.0 5.8 5.6 4.7 4.3 4.5 4.7 4.6 4.1 4.6 5.2 5.4 5.5 5.6 5.8 6.2 6.2 6.1 6.1 6.2 6.3 6.3 6.4 6.2 6.1 6.0 5.7 5.9 5.9 5.9 5.9 6.0
5.8 5.7 5.7 5.6 5.0 4.2 4.6 4.4 4.3 4.0 4.4 5.0 4.9 5.0 5.4 5.6 5.9 6.0 6.1 6.0 6.0 6.1 6.2 6.1 6.2 6.2 6.0 5.8 5.7 5.7 5.7 5.7 5.7
5.2 5.6 5.6 5.4 4.7 4.5 4.4 4.9 4.8 4.4 4.1 4.4 4.1 4.3 5.4 5.7 5.5 5.7 5.7 5.8 5.8 5.9 5.7 5.9 5.9 6.0 6.0 5.7 5.5 5.5 5.5 5.5 5.6
4.8 4.7 4.8 5.2 5.2 4.6 4.2 4.8 4.4 4.3 4.4 4.2 3.9 4.1 4.5 5.2 5.1 5.2 5.3 5.5 5.5 5.6 5.5 5.4 5.4 5.5 5.6 5.5 5.5 5.5 5.6 5.6 5.5
4.7 4.2 3.9 4.0 4.7 4.0 4.6 4.0 4.4 4.2 3.7 4.0 3.8 4.0 4.0 4.5 4.5 4.8 4.8 4.9 5.1 5.1 5.2 5.2 5.0 5.0 5.2 5.3 5.3 5.3 5.2 5.2 5.2
Wind_Speed
20 21 20 20 19 18 18 19 19 17 15 13 13 15 13 15 13 13 12 18 19 19 19 19 20 21 18 19 19 20 21 19 21
22 22 20 19 18 18 19 21 19 15 14 16 17 15 14 15 13 12 13 19 23 22 18 18 17 18 18 19 20 21 21 18 19
22 22 20 18 17 17 20 22 19 14 20 19 17 17 17 16 15 14 16 21 23 21 18 18 17 21 18 20 19 19 18 19 18
22 21 19 18 17 17 19 20 16 14 18 20 17 18 19 18 16 13 15 18 22 21 18 15 16 16 18 21 17 17 17 16 14
20 19 18 17 17 17 18 17 14 19 19 20 19 18 20 18 16 14 11 16 19 20 19 15 16 16 20 20 17 14 13 17 16
20 17 16 17 17 17 17 15 16 19 22 21 19 14 13 16 14 15 11 14 17 18 18 13 16 16 17 16 16 12 13 14 12
16 17 17 17 16 16 15 14 17 16 14 16 14 12 12 13 12 13 13 13 16 18 16 12 16 15 15 14 14 13 12 12 12
11 11 12 14 17 13 12 15 14 16 13 11 11 12 12 11 12 12 12 12 15 15 16 13 15 14 14 13 12 12 12 10 10
8 8 12 11 13 12 13 10 13 8 10 13 10 9 13 10 9 10 12 12 11 12 14 15 15 14 14 12 12 11 10 10 10
11 9 10 11 13 13 11 10 10 9 9 10 9 9 9 9 11 11 11 13 13 13 15 14 15 14 13 13 12 10 9 9 10
9 8 8 9 15 14 12 10 8 7 8 6 8 8 8 10 13 14 14 13 12 14 15 15 15 14 14 13 11 10 10 9 9
11 7 5 9 15 13 12 6 7 5 4 3 6 9 8 10 12 15 16 16 15 14 16 17 15 14 14 13 11 11 10 10 9
9 4 4 9 10 10 6 3 4 4 4 3 3 5 9 9 11 10 12 14 16 15 16 17 17 15 16 14 12 12 11 10 10
10 6 6 7 5 5 4 2 4 5 4 3 4 4 4 9 10 10 11 12 12 18 17 19 19 19 17 15 14 13 12 12 11
10 8 7 6 2 3 2 3 2 3 7 4 3 2 1 4 6 9 12 15 16 15 17 18 19 19 19 17 15 15 14 14 13
8 6 7 6 3 3 4 2 4 2 2 4 2 2 3 3 3 6 7 9 17 15 17 18 18 20 22 19 19 18 17 16 16
8 6 4 4 3 3 3 2 2 2 5 3 3 2 1 2 4 3 4 7 11 13 17 16 18 19 18 20 22 21 20 19 18
7 7 6 4 3 3 1 5 4 3 3 3 4 2 3 1 2 6 4 6 4 10 15 17 17 20 21 23 25 27 24 22 21
2 4 6 4 2 3 4 3 2 4 3 1 1 1 3 3 2 2 4 4 6 7 9 14 17 20 20 24 25 29 29 27 25
6 7 3 1 2 2 3 3 4 3 3 3 2 1 1 2 2 3 3 2 5 4 10 13 13 18 20 19 23 32 31 31 28
Wind_Direction
140 128 114 121 129 132 131 130 130 127 132 134 129 127 123 122 123 124 119 115 112 114 111 109 105 102 111 107 106 108 107 100 90
137 123 125 132 137 136 135 134 133 137 146 135 133 128 124 122 121 123 127 120 121 114 112 112 115 117 116 111 108 99 96 102 105
134 137 139 141 140 140 141 138 139 145 135 135 131 126 120 112 113 118 122 132 121 117 116 117 119 115 120 113 108 111 109 103 106
143 145 146 146 146 145 147 145 142 142 138 135 133 130 123 111 112 114 128 134 127 124 123 121 123 123 122 117 107 113 103 112 105
149 150 152 152 150 150 153 152 138 138 140 134 135 124 120 119 118 120 134 135 128 126 126 135 132 131 118 115 116 108 117 118 95
155 160 162 156 156 157 160 155 140 136 139 136 134 123 122 123 124 125 134 134 130 131 123 139 134 132 120 123 122 118 109 106 113
164 169 168 161 161 165 165 154 141 133 130 133 129 123 124 122 130 134 141 149 142 139 132 150 141 127 126 124 121 125 123 120 117
165 163 166 168 168 164 155 141 144 141 135 132 130 133 134 138 140 142 146 152 141 142 149 144 127 130 137 134 133 130 133 120 119
154 156 161 160 165 157 145 150 152 144 145 139 141 155 134 139 132 155 168 153 157 152 152 144 144 150 143 143 139 141 137 134 135
157 165 164 162 163 154 146 158 158 146 140 140 156 149 154 162 154 177 164 148 166 158 153 158 157 155 157 157 146 151 149 150 144
153 158 166 176 172 165 156 173 161 153 152 152 168 156 167 174 161 167 165 160 166 165 170 172 168 168 163 163 158 160 165 160 158
161 161 163 191 181 172 155 155 145 134 132 164 169 164 171 175 172 170 171 171 181 195 190 171 177 175 176 162 173 177 175 172 171
155 149 166 184 170 168 161 151 142 143 168 154 178 168 172 178 176 185 188 189 192 200 186 180 183 184 181 176 186 187 187 185 183
150 147 147 157 181 150 163 146 139 158 141 160 151 176 183 177 176 189 197 197 202 198 208 187 185 196 187 182 196 199 198 196 195
152 143 136 135 156 167 165 143 130 152 156 132 105 82 236 183 187 199 195 202 218 214 194 198 201 194 193 185 204 207 207 206 204
154 145 143 147 167 170 191 148 169 116 110 103 58 48 5 295 251 218 218 214 213 218 205 205 206 194 195 199 200 210 212 213 213
155 147 152 160 157 167 193 202 150 122 170 137 121 170 343 275 252 255 225 216 213 217 223 213 202 190 198 203 201 208 215 217 219
156 148 153 170 162 181 134 217 163 181 189 227 145 150 201 115 241 241 231 222 209 216 218 222 209 200 200 202 206 204 211 218 223
106 118 121 128 136 184 205 167 216 150 195 286 209 109 136 175 265 276 254 232 225 219 219 222 213 209 208 205 206 208 208 216 224
11 15 17 298 188 186 224 175 206 230 159 203 185 195 121 117 145 230 276 322 244 229 223 218 217 214 212 212 211 208 209 218 226